OneWeb SL0700

operational
NORAD ID: 61606 Int'l Des: 2024-188 Owner: ONEWEBE Country: UK Constellation: oneweb
LEOCIRCULARPOLARONEWEB_TYPE

Über OneWeb SL0700

Beschreibung wird geladen...

Live-Position

3D-Globus wird geladen...

Nächste Überflüge

Höhenverlauf

Altitude vs Time

uPlot chart will show altitude changes over time

Zweizeiliger Elementsatz

1 61606U 24188N 25298.95236649 -.00000074 00000-0 -24760-3 0 9997
2 61606 87.8778 82.8343 0002235 84.6007 275.5375 13.10368723 52624
Epoch: 25. Okt. 2025 • Age: 7 hours

Aktueller Status

Höhe 1247.6 km
Geschwindigkeit 7.23 km/s
Subsatellitenpunkt -63.66°S, 44.3°W
Startdatum 20. Okt. 2024
Alter 1 years
Typ internet

Technische Details

Klassifizierung Payload
Masse 148.00 kg
Trockenmasse 140.00 kg
Gesamtmasse 148.00 kg
Länge 1.30 m
Durchmesser 1.00 m
Spannweite 5.00 m
Form Trapezoid+2 pan
Hersteller ONEWUS
Bus-Typ ARROW
Phasenstatus In Orbit
Besitzer/Staat ONEWEBE/UK

Große Konstellationen

Loading constellations...